This demonstration page uses our WeatherBlox Daily Observations layout. Learn more.

Left ArrowRight Arrow

39.08367, -84.50855

Hourly Observations for October 18, 2015

Temp ( °F °C ) Dew Point ( °F °C ) Humidity (%) Winds ( mph kmh ) Pressure ( in mb ) Visibility ( mi km ) Precip ( " mm )
12:53 am 00:53 Clear 34 1.1 32 0 92 92 Calm 30.46 1032 10 16 0.00 0.00
1:53 am 01:53 Clear 32 0 31 -0.6 96 96 Calm 30.45 1031 9 14 0.00 0.00
2:53 am 02:53 Clear 31 -0.6 30 -1.1 96 96 Calm 30.45 1031 8 13 0.00 0.00
3:53 am 03:53 Clear 30 -1.1 30 -1.1 100 100 ENE 3 6 30.45 1031 7 11 0.00 0.00
4:53 am 04:53 Clear with Mist and Fog 29 -1.7 29 -1.7 100 100 ENE 3 6 30.46 1032 6 10 0.00 0.00
5:53 am 05:53 Clear 29 -1.7 28 -2.2 96 96 Calm 30.48 1032 7 11 0.00 0.00
6:35 am 06:35 Partly Cloudy with Mist and Fog 29 -1.7 28 -2.2 96 96 Calm 30.50 1033 5 8 0.00 0.00
6:44 am 06:44 Mostly Cloudy 28 -2 28 -2 100 100 NE 3 6 30.50 1033 7 11 0.00 0.00
6:53 am 06:53 Cloudy with Patchy Fog 29 -1.7 28 -2.2 96 96 NE 3 6 30.49 1033 1 2 0.00 0.00
7:53 am 07:53 Mostly Cloudy with Freezing Fog 31 -0.6 31 -0.6 100 100 NE 3 6 30.51 1033 0 0 0.00 0.03
8:53 am 08:53 Mostly Cloudy with Fog 32 0 32 0 100 100 Calm 30.53 1034 0 0 0.00 0.00
9:10 am 09:10 Cloudy with Fog 34 1 34 1 100 100 Calm 30.56 1035 1 1 0.00 0.00
9:19 am 09:19 Cloudy with Mist and Fog 34 1.1 34 1.1 100 100 Calm 30.56 1035 2 3 0.00 0.00
9:35 am 09:35 Cloudy with Mist and Fog 36 2.2 36 2.2 100 100 Calm 30.56 1035 2 3 0.00 0.00
9:53 am 09:53 Partly Cloudy with Mist and Fog 37 2.8 36 2.2 96 96 Calm 30.54 1034 5 8 0.00 0.00
10:53 am 10:53 Sunny 46 7.8 34 1.1 63 63 VRB 3 6 30.55 1034 10 16 0.00 0.00
11:53 am 11:53 Sunny 50 10 30 -1.1 46 46 WSW 5 7 30.54 1034 10 16 0.00 0.00
12:53 pm 12:53 Sunny 54 12.2 31 -0.6 42 42 Calm 30.53 1034 10 16 0.00 0.00
1:53 pm 13:53 Sunny 55 12.8 31 -0.6 40 40 WNW 8 13 30.50 1033 10 16 0.00 0.00
2:53 pm 14:53 Partly Cloudy 58 14.4 30 -1.1 35 35 NNW 10 17 30.47 1032 10 16 0.00 0.00
3:53 pm 15:53 Sunny 58 14.4 30 -1.1 35 35 N 12 19 30.46 1031 10 16 0.00 0.00
4:53 pm 16:53 Sunny 58 14.4 28 -2.2 32 32 NNW 9 15 30.45 1031 10 16 0.00 0.00
5:53 pm 17:53 Sunny 57 13.9 27 -2.8 32 32 W 3 6 30.44 1031 10 16 0.00 0.00
6:53 pm 18:53 Sunny 52 11.1 30 -1.1 43 43 Calm 30.43 1031 10 16 0.00 0.00
7:53 pm 19:53 Clear 44 6.7 36 2.2 73 73 Calm 30.44 1031 10 16 0.00 0.00
8:53 pm 20:53 Clear 41 5 36 2.2 82 82 Calm 30.45 1031 10 16 0.00 0.00
9:53 pm 21:53 Clear 39 3.9 35 1.7 86 86 Calm 30.45 1031 10 16 0.00 0.00
10:53 pm 22:53 Clear 37 2.8 36 2.2 96 96 Calm 30.45 1031 10 16 0.00 0.00
11:53 pm 23:53 Clear 37 2.8 35 1.7 93 93 Calm 30.45 1031 10 16 0.00 0.00

Powered by AerisWeather